TimeMDT,TemperatureF,Dew PointF,Humidity,Sea Level PressureIn,VisibilityMPH,Wind Direction,Wind SpeedMPH,Gust SpeedMPH,PrecipitationIn,Events,Conditions,WindDirDegrees,DateUTC
12:53 AM,35.1,28.0,76,30.07,10.0,SSW,11.5,-,N/A,,Clear,210,2014-03-09 07:53:00
1:53 AM,34.0,27.0,75,30.03,10.0,SW,11.5,-,N/A,,Clear,230,2014-03-09 08:53:00
3:53 AM,36.0,26.1,67,30.01,10.0,SW,6.9,-,N/A,,Clear,230,2014-03-09 09:53:00
4:53 AM,33.1,24.1,70,30.03,10.0,WSW,10.4,-,N/A,,Clear,240,2014-03-09 10:53:00
5:53 AM,32.0,23.0,69,30.03,10.0,WSW,9.2,-,N/A,,Clear,250,2014-03-09 11:53:00
6:53 AM,35.1,24.1,64,30.04,10.0,WSW,11.5,-,N/A,,Clear,250,2014-03-09 12:53:00
7:53 AM,37.0,25.0,62,30.03,10.0,WSW,11.5,-,N/A,,Clear,240,2014-03-09 13:53:00
8:53 AM,46.9,25.0,42,30.02,10.0,West,16.1,-,N/A,,Clear,260,2014-03-09 14:53:00
9:53 AM,52.0,26.1,37,30.01,10.0,West,19.6,-,N/A,,Clear,280,2014-03-09 15:53:00
10:53 AM,57.0,25.0,29,29.99,10.0,West,23.0,-,N/A,,Clear,280,2014-03-09 16:53:00
11:53 AM,61.0,26.1,26,29.96,10.0,West,26.5,31.1,N/A,,Clear,280,2014-03-09 17:53:00
12:53 PM,64.0,27.0,25,29.94,10.0,West,20.7,28.8,N/A,,Clear,280,2014-03-09 18:53:00
1:53 PM,66.0,28.0,24,29.89,10.0,West,19.6,-,N/A,,Clear,270,2014-03-09 19:53:00
2:53 PM,68.0,28.0,22,29.87,10.0,North,-9999.0,-,N/A,,Clear,0,2014-03-09 20:53:00
3:53 PM,66.9,28.0,23,29.87,10.0,North,-9999.0,-,N/A,,Clear,0,2014-03-09 21:53:00
4:53 PM,63.0,30.0,29,29.89,10.0,North,-9999.0,-,N/A,,Clear,0,2014-03-09 22:53:00
5:53 PM,59.0,30.9,35,29.90,10.0,North,-9999.0,-,N/A,,Clear,0,2014-03-09 23:53:00
6:53 PM,54.0,32.0,43,29.92,10.0,North,-9999.0,-,N/A,,Clear,0,2014-03-10 00:53:00
7:53 PM,46.9,32.0,56,29.94,10.0,North,-9999.0,-,N/A,,Clear,0,2014-03-10 01:53:00
8:53 PM,45.0,30.9,58,29.93,10.0,North,-9999.0,-,N/A,,Clear,0,2014-03-10 02:53:00
9:53 PM,43.0,30.9,62,29.93,10.0,North,-9999.0,-,N/A,,Clear,0,2014-03-10 03:53:00
10:53 PM,39.9,32.0,73,29.93,10.0,North,-9999.0,-,N/A,,Clear,0,2014-03-10 04:53:00
11:53 PM,39.0,30.0,70,29.92,10.0,North,-9999.0,-,N/A,,Clear,0,2014-03-10 05:53:00
12:53 AM,37.0,30.0,76,29.92,10.0,North,-9999.0,-,N/A,,Clear,0,2014-03-10 06:53:00